This is the latest recevied weather packets stored in our database for station/object K4OAM-13. If no packets are shown the sender has not sent any weather packets the latest 10 day(s).
| Time | Temp. | Humidity | Pressure | Rain* | Wind** | Luminosity | Snow |
|---|---|---|---|---|---|---|---|
| 1778008738 | 9.44° C | 97% | 1008.3 hPa | - | - | - | - |
| 1778008122 | 9.44° C | 99% | 1008.2 hPa | - | - | - | - |
| 1778007822 | 9.44° C | 10% | - | - | - | - | - |
| 1778006622 | 8.89° C | 99% | 1008.1 hPa | - | - | - | - |
| 1778003038 | 9.44° C | 96% | 1009.1 hPa | - | - | - | - |
| 1778002122 | 9.44° C | 97% | 1009.1 hPa | - | - | - | - |
| 1777998538 | 9.44° C | 96% | 1009.2 hPa | - | - | - | - |
| 1777997621 | 9.44° C | 97% | 1009.7 hPa | - | - | - | - |
| 1777997022 | 9.44° C | 96% | 1010 hPa | - | - | - | - |
| 1777995821 | 9.44° C | 91% | 1010.1 hPa | - | - | - | - |
| 1777995222 | 9.44° C | 88% | 1010.1 hPa | - | - | - | - |
| 1777993721 | 9.44° C | 90% | 1009.7 hPa | - | - | - | - |
| 1777992822 | 8.89° C | 91% | 1009.8 hPa | - | - | - | - |
| 1777992522 | 9.44° C | 91% | 1009.7 hPa | - | - | - | - |
| 1777991621 | 9.44° C | 90% | 1010 hPa | - | - | - | - |
| 1777991022 | 9.44° C | 87% | 1009.9 hPa | - | - | - | - |
| 1777988938 | 8.89° C | 87% | 1010.7 hPa | - | - | - | - |
| 1777988022 | 8.89° C | 91% | 1010.7 hPa | - | - | - | - |
| 1777984721 | 7.78° C | 91% | 1011 hPa | - | - | - | - |
| 1777984121 | 7.78° C | 92% | 1011.1 hPa | - | - | - | - |
| 1777979338 | 7.78° C | 89% | 1010.4 hPa | - | - | - | - |
| 1777976621 | 7.78° C | 82% | 1010 hPa | - | - | - | - |
| 1777975421 | 8.33° C | 79% | 1009.9 hPa | - | - | - | - |
| 1777973022 | 8.33° C | 78% | 1009.9 hPa | - | - | - | - |
| 1777972453 | 7.78° C | 80% | 1009.9 hPa | - | - | - | - |
* Rain since midnight (hover to see other rain measurements)
** Current wind speed in m/s (hover to see current wind gust speed)